STARLINK-36047 (66795 NORAD) Tracking and Keplerian Element Data

This shows tracking and keplerian element data for the satellite.

Feedback or suggestion? Click here.




ElementValue
Catalog66795
NameSTARLINK-36047
Epoch Orbit406
Epoch Day354.25003472
Epoch Year2025
RAAN206.4585
Inclination42.9995
Eccentricity0.0001267
Argument of Perigee259.139
Mean Anonmoly331.1357
Mean Motion15.63546348
Decay Rate-0.01987935
L11 66795U 25278E 25354.25003472 -.01987935 00000+0 -23697-1 0 9990
L22 66795 42.9995 206.4585 0001267 259.1390 331.1357 15.63546348 4066



Live tracking and technical data element details for STARLINK-36047 (NORAD 66795). STARLINK-36047 can be tracked NOW for your location showing map with azimuth and elevation plus other details from your city location.







IsCatalogInMostPopularTable: catalog: 66795, numindb: 11
Update: records affected: 1



GetName: 66795 STARLINK-36047

Hit Count: updated at: Sun, 08 Feb 2026 17:24:04 GMT